Time,TemperatureF,DewpointF,PressureIn,WindDirection,WindDirectionDegrees,WindSpeedMPH,WindSpeedGustMPH,Humidity,HourlyPrecipIn,Conditions,Clouds,dailyrainin,SoftwareType,DateUTC
2013-05-30 00:01:00,52.0,46.0,29.95,NNE,13,1.0,3.0,79,0.00,,,0.00,,2013-05-30 07:01:00,
2013-05-30 00:11:00,52.0,46.0,29.95,NNE,13,1.0,3.0,79,0.00,,,0.00,,2013-05-30 07:11:00,
2013-05-30 00:21:00,52.0,46.0,29.95,NE,34,1.0,2.0,79,0.00,,,0.00,,2013-05-30 07:21:00,
2013-05-30 00:31:00,52.0,46.0,29.95,ESE,119,0.0,2.0,80,0.00,,,0.00,,2013-05-30 07:31:00,
2013-05-30 00:42:00,52.0,46.0,29.95,ESE,119,0.0,2.0,80,0.00,,,0.00,,2013-05-30 07:42:00,
2013-05-30 00:52:00,51.0,45.0,29.95,ESE,119,0.0,2.0,81,0.00,,,0.00,,2013-05-30 07:52:00,
2013-05-30 01:01:00,51.0,46.0,29.95,ESE,119,1.0,2.0,82,0.00,,,0.00,,2013-05-30 08:01:00,
2013-05-30 01:11:00,51.0,46.0,29.95,ESE,119,1.0,2.0,82,0.00,,,0.00,,2013-05-30 08:11:00,
2013-05-30 01:21:00,51.0,46.0,29.94,ESE,118,0.0,2.0,82,0.00,,,0.00,,2013-05-30 08:21:00,
2013-05-30 01:31:00,51.0,46.0,29.94,East,95,0.0,1.0,82,0.00,,,0.00,,2013-05-30 08:31:00,
2013-05-30 01:41:00,51.0,46.0,29.94,East,95,0.0,1.0,82,0.00,,,0.00,,2013-05-30 08:41:00,
2013-05-30 01:53:00,50.0,45.0,29.94,East,95,1.0,2.0,84,0.00,,,0.00,,2013-05-30 08:53:00,
2013-05-30 02:01:00,50.0,45.0,29.93,East,91,0.0,3.0,84,0.00,,,0.00,,2013-05-30 09:01:00,
2013-05-30 02:11:00,50.0,45.0,29.93,East,91,0.0,3.0,84,0.00,,,0.00,,2013-05-30 09:11:00,
2013-05-30 02:21:00,50.0,46.0,29.93,ESE,119,0.0,2.0,85,0.00,,,0.00,,2013-05-30 09:21:00,
2013-05-30 02:32:00,50.0,46.0,29.93,ESE,117,1.0,2.0,85,0.00,,,0.00,,2013-05-30 09:32:00,
2013-05-30 02:42:00,50.0,46.0,29.93,ESE,117,1.0,2.0,85,0.00,,,0.00,,2013-05-30 09:42:00,
2013-05-30 02:53:00,49.0,45.0,29.93,NW,306,0.0,1.0,86,0.00,,,0.00,,2013-05-30 09:53:00,
2013-05-30 03:02:00,49.0,45.0,29.93,NW,306,1.0,3.0,86,0.00,,,0.00,,2013-05-30 10:02:00,
2013-05-30 03:12:00,49.0,45.0,29.93,NW,306,1.0,3.0,86,0.00,,,0.00,,2013-05-30 10:12:00,
2013-05-30 03:22:00,49.0,45.0,29.93,NW,306,0.0,1.0,86,0.00,,,0.00,,2013-05-30 10:22:00,
2013-05-30 03:32:00,49.0,45.0,29.93,NNE,16,0.0,2.0,87,0.00,,,0.00,,2013-05-30 10:32:00,
2013-05-30 03:42:00,49.0,45.0,29.93,NNE,16,0.0,2.0,87,0.00,,,0.00,,2013-05-30 10:42:00,
2013-05-30 03:52:00,49.0,45.0,29.93,South,190,1.0,3.0,87,0.00,,,0.00,,2013-05-30 10:52:00,
2013-05-30 04:02:00,48.0,44.0,29.93,SSW,192,1.0,2.0,87,0.00,,,0.00,,2013-05-30 11:02:00,
2013-05-30 04:12:00,48.0,44.0,29.93,SSW,192,1.0,2.0,87,0.00,,,0.00,,2013-05-30 11:12:00,
2013-05-30 04:21:00,48.0,45.0,29.94,South,169,0.0,1.0,88,0.00,,,0.00,,2013-05-30 11:21:00,
2013-05-30 04:32:00,48.0,44.0,29.94,WSW,243,0.0,1.0,87,0.00,,,0.00,,2013-05-30 11:32:00,
2013-05-30 04:42:00,48.0,44.0,29.94,WSW,243,0.0,1.0,87,0.00,,,0.00,,2013-05-30 11:42:00,
2013-05-30 04:52:00,48.0,44.0,29.94,WSW,243,0.0,2.0,87,0.00,,,0.00,,2013-05-30 11:52:00,
2013-05-30 05:01:00,48.0,44.0,29.94,SSE,151,1.0,2.0,87,0.00,,,0.00,,2013-05-30 12:01:00,
2013-05-30 05:11:00,48.0,44.0,29.94,SSE,151,1.0,2.0,87,0.00,,,0.00,,2013-05-30 12:11:00,
2013-05-30 05:21:00,48.0,45.0,29.94,SSE,151,0.0,1.0,88,0.00,,,0.00,,2013-05-30 12:21:00,
2013-05-30 05:32:00,47.0,44.0,29.94,East,92,1.0,3.0,89,0.00,,,0.00,,2013-05-30 12:32:00,
2013-05-30 05:42:00,47.0,44.0,29.94,East,92,1.0,3.0,89,0.00,,,0.00,,2013-05-30 12:42:00,
2013-05-30 05:52:00,47.0,44.0,29.94,ESE,114,0.0,2.0,88,0.00,,,0.00,,2013-05-30 12:52:00,
2013-05-30 06:01:00,47.0,44.0,29.95,North,5,1.0,3.0,89,0.00,,,0.00,,2013-05-30 13:01:00,
2013-05-30 06:11:00,47.0,44.0,29.95,North,5,1.0,3.0,89,0.00,,,0.00,,2013-05-30 13:11:00,
2013-05-30 06:22:00,47.0,44.0,29.95,North,5,1.0,2.0,88,0.00,,,0.00,,2013-05-30 13:22:00,
2013-05-30 06:32:00,47.0,43.0,29.95,North,9,0.0,2.0,87,0.00,,,0.00,,2013-05-30 13:32:00,
2013-05-30 06:41:00,47.0,43.0,29.95,North,9,0.0,2.0,87,0.00,,,0.00,,2013-05-30 13:41:00,
2013-05-30 06:52:00,47.0,44.0,29.95,North,9,0.0,1.0,88,0.00,,,0.00,,2013-05-30 13:52:00,
2013-05-30 07:01:00,46.0,43.0,29.96,NE,47,0.0,2.0,89,0.00,,,0.00,,2013-05-30 14:01:00,
2013-05-30 07:11:00,46.0,43.0,29.96,NE,47,0.0,2.0,89,0.00,,,0.00,,2013-05-30 14:11:00,
2013-05-30 07:21:00,46.0,43.0,29.96,South,169,0.0,3.0,90,0.00,,,0.00,,2013-05-30 14:21:00,
2013-05-30 07:32:00,47.0,44.0,29.96,South,169,0.0,0.0,89,0.00,,,0.00,,2013-05-30 14:32:00,
2013-05-30 07:42:00,47.0,44.0,29.96,South,169,0.0,0.0,89,0.00,,,0.00,,2013-05-30 14:42:00,
2013-05-30 07:52:00,47.0,44.0,29.96,South,169,0.0,1.0,90,0.00,,,0.00,,2013-05-30 14:52:00,
2013-05-30 08:01:00,47.0,44.0,29.97,South,169,0.0,1.0,90,0.00,,,0.00,,2013-05-30 15:01:00,
2013-05-30 08:11:00,47.0,44.0,29.97,South,169,0.0,1.0,90,0.00,,,0.00,,2013-05-30 15:11:00,
2013-05-30 08:22:00,48.0,45.0,29.98,ENE,61,0.0,1.0,88,0.00,,,0.00,,2013-05-30 15:22:00,
2013-05-30 08:33:00,50.0,46.0,29.98,NE,51,0.0,2.0,86,0.00,,,0.00,,2013-05-30 15:33:00,
2013-05-30 08:42:00,50.0,46.0,29.98,NE,51,0.0,2.0,86,0.00,,,0.00,,2013-05-30 15:42:00,
2013-05-30 08:52:00,53.0,47.0,29.99,SSW,198,1.0,4.0,79,0.00,,,0.00,,2013-05-30 15:52:00,
2013-05-30 09:03:00,55.0,48.0,29.99,SSW,212,1.0,4.0,77,0.00,,,0.00,,2013-05-30 16:03:00,
2013-05-30 09:12:00,55.0,48.0,29.99,SSW,212,1.0,4.0,77,0.00,,,0.00,,2013-05-30 16:12:00,
2013-05-30 09:22:00,57.0,47.0,29.99,SSW,209,1.0,3.0,70,0.00,,,0.00,,2013-05-30 16:22:00,
2013-05-30 09:33:00,58.0,47.0,29.99,South,185,1.0,4.0,67,0.00,,,0.00,,2013-05-30 16:33:00,
2013-05-30 09:42:00,58.0,47.0,29.99,South,185,1.0,4.0,67,0.00,,,0.00,,2013-05-30 16:42:00,
2013-05-30 09:52:00,59.0,48.0,29.99,WSW,258,1.0,3.0,66,0.00,,,0.00,,2013-05-30 16:52:00,
2013-05-30 10:02:00,61.0,48.0,29.99,SSW,211,2.0,5.0,62,0.00,,,0.00,,2013-05-30 17:02:00,
2013-05-30 10:11:00,61.0,48.0,29.99,SSW,211,2.0,5.0,62,0.00,,,0.00,,2013-05-30 17:11:00,
2013-05-30 10:22:00,62.0,49.0,29.99,SW,225,1.0,3.0,63,0.00,,,0.00,,2013-05-30 17:22:00,
2013-05-30 10:32:00,63.0,48.0,29.99,SSW,207,1.0,6.0,59,0.00,,,0.00,,2013-05-30 17:32:00,
2013-05-30 10:42:00,63.0,48.0,29.99,SSW,207,1.0,6.0,59,0.00,,,0.00,,2013-05-30 17:42:00,
2013-05-30 10:52:00,64.0,48.0,29.99,NW,322,1.0,5.0,56,0.00,,,0.00,,2013-05-30 17:52:00,
2013-05-30 11:02:00,66.0,49.0,29.99,SSE,148,1.0,6.0,54,0.00,,,0.00,,2013-05-30 18:02:00,
2013-05-30 11:11:00,66.0,49.0,29.99,SSE,148,1.0,6.0,54,0.00,,,0.00,,2013-05-30 18:11:00,
2013-05-30 11:21:00,67.0,46.0,29.99,SW,229,1.0,5.0,47,0.00,,,0.00,,2013-05-30 18:21:00,
2013-05-30 11:32:00,67.0,48.0,29.99,SSW,207,2.0,6.0,50,0.00,,,0.00,,2013-05-30 18:32:00,
2013-05-30 11:42:00,67.0,48.0,29.99,SSW,207,2.0,6.0,50,0.00,,,0.00,,2013-05-30 18:42:00,
2013-05-30 11:52:00,69.0,47.0,29.99,SW,218,2.0,5.0,45,0.00,,,0.00,,2013-05-30 18:52:00,
2013-05-30 12:01:00,70.0,46.0,29.99,SW,223,3.0,6.0,43,0.00,,,0.00,,2013-05-30 19:01:00,
2013-05-30 12:11:00,70.0,46.0,29.99,SW,223,3.0,6.0,43,0.00,,,0.00,,2013-05-30 19:11:00,
2013-05-30 12:22:00,71.0,47.0,29.99,WSW,245,2.0,5.0,43,0.00,,,0.00,,2013-05-30 19:22:00,
2013-05-30 12:32:00,72.0,46.0,29.98,SSW,208,2.0,4.0,40,0.00,,,0.00,,2013-05-30 19:32:00,
2013-05-30 12:42:00,72.0,46.0,29.98,SSW,208,2.0,4.0,40,0.00,,,0.00,,2013-05-30 19:42:00,
2013-05-30 12:52:00,73.0,48.0,29.98,South,171,2.0,4.0,41,0.00,,,0.00,,2013-05-30 19:52:00,
2013-05-30 13:01:00,73.0,44.0,29.98,SSW,200,3.0,6.0,36,0.00,,,0.00,,2013-05-30 20:01:00,
2013-05-30 13:11:00,73.0,44.0,29.98,SSW,200,3.0,6.0,36,0.00,,,0.00,,2013-05-30 20:11:00,
2013-05-30 13:22:00,75.0,45.0,29.98,SSE,159,3.0,5.0,35,0.00,,,0.00,,2013-05-30 20:22:00,
2013-05-30 13:33:00,75.0,46.0,29.98,ESE,114,2.0,7.0,36,0.00,,,0.00,,2013-05-30 20:33:00,
2013-05-30 13:41:00,75.0,46.0,29.98,ESE,114,2.0,7.0,36,0.00,,,0.00,,2013-05-30 20:41:00,
2013-05-30 13:52:00,76.0,49.0,29.98,SSE,159,4.0,6.0,39,0.00,,,0.00,,2013-05-30 20:52:00,
2013-05-30 14:01:00,76.0,46.0,29.97,South,175,1.0,8.0,34,0.00,,,0.00,,2013-05-30 21:01:00,
2013-05-30 14:11:00,76.0,46.0,29.97,South,175,1.0,8.0,34,0.00,,,0.00,,2013-05-30 21:11:00,
2013-05-30 14:22:00,77.0,44.0,29.97,ESE,103,3.0,9.0,31,0.00,,,0.00,,2013-05-30 21:22:00,
2013-05-30 14:33:00,77.0,42.0,29.97,SSW,197,3.0,8.0,29,0.00,,,0.00,,2013-05-30 21:33:00,
2013-05-30 14:42:00,77.0,42.0,29.97,SSW,197,3.0,8.0,29,0.00,,,0.00,,2013-05-30 21:42:00,
2013-05-30 14:53:00,78.0,41.0,29.96,SSW,198,3.0,8.0,27,0.00,,,0.00,,2013-05-30 21:53:00,
2013-05-30 15:02:00,79.0,39.0,29.96,SSW,201,4.0,6.0,24,0.00,,,0.00,,2013-05-30 22:02:00,
2013-05-30 15:12:00,79.0,39.0,29.96,SSW,201,4.0,6.0,24,0.00,,,0.00,,2013-05-30 22:12:00,
2013-05-30 15:22:00,80.0,41.0,29.95,WNW,296,1.0,5.0,25,0.00,,,0.00,,2013-05-30 22:22:00,
2013-05-30 15:32:00,80.0,37.0,29.96,SSW,205,3.0,8.0,21,0.00,,,0.00,,2013-05-30 22:32:00,
2013-05-30 15:42:00,80.0,37.0,29.96,SSW,205,3.0,8.0,21,0.00,,,0.00,,2013-05-30 22:42:00,
2013-05-30 15:52:00,81.0,40.0,29.95,South,179,3.0,7.0,23,0.00,,,0.00,,2013-05-30 22:52:00,
2013-05-30 16:02:00,80.0,44.0,29.95,SSW,196,1.0,7.0,28,0.00,,,0.00,,2013-05-30 23:02:00,
2013-05-30 16:11:00,80.0,44.0,29.95,SSW,196,1.0,7.0,28,0.00,,,0.00,,2013-05-30 23:11:00,
2013-05-30 16:21:00,79.0,46.0,29.95,SSE,151,2.0,12.0,31,0.00,,,0.00,,2013-05-30 23:21:00,
2013-05-30 16:31:00,79.0,47.0,29.95,SSW,196,3.0,8.0,32,0.00,,,0.00,,2013-05-30 23:31:00,
2013-05-30 16:41:00,79.0,47.0,29.95,SSW,196,3.0,8.0,32,0.00,,,0.00,,2013-05-30 23:41:00,
2013-05-30 16:52:00,78.0,47.0,29.94,South,178,3.0,8.0,34,0.00,,,0.00,,2013-05-30 23:52:00,
2013-05-30 17:01:00,78.0,47.0,29.94,ESE,109,3.0,8.0,34,0.00,,,0.00,,2013-05-31 00:01:00,
2013-05-30 17:11:00,78.0,47.0,29.94,ESE,109,3.0,8.0,34,0.00,,,0.00,,2013-05-31 00:11:00,
2013-05-30 17:21:00,79.0,38.0,29.94,SSE,149,3.0,6.0,23,0.00,,,0.00,,2013-05-31 00:21:00,
2013-05-30 17:32:00,80.0,42.0,29.94,South,173,2.0,7.0,26,0.00,,,0.00,,2013-05-31 00:32:00,
2013-05-30 17:41:00,80.0,42.0,29.94,South,173,2.0,7.0,26,0.00,,,0.00,,2013-05-31 00:41:00,
2013-05-30 17:52:00,80.0,41.0,29.94,ESE,109,1.0,5.0,25,0.00,,,0.00,,2013-05-31 00:52:00,
2013-05-30 18:01:00,79.0,41.0,29.94,NW,313,1.0,6.0,26,0.00,,,0.00,,2013-05-31 01:01:00,
2013-05-30 18:11:00,79.0,41.0,29.94,NW,313,1.0,6.0,26,0.00,,,0.00,,2013-05-31 01:11:00,
2013-05-30 18:21:00,79.0,43.0,29.94,WSW,240,2.0,4.0,28,0.00,,,0.00,,2013-05-31 01:21:00,
2013-05-30 18:31:00,78.0,46.0,29.94,West,280,1.0,4.0,32,0.00,,,0.00,,2013-05-31 01:31:00,
2013-05-30 18:42:00,75.0,46.0,29.94,ENE,63,2.0,6.0,36,0.00,,,0.00,,2013-05-31 01:42:00,
2013-05-30 18:52:00,75.0,46.0,29.94,ENE,63,2.0,6.0,36,0.00,,,0.00,,2013-05-31 01:52:00,
2013-05-30 19:02:00,73.0,45.0,29.95,ENE,69,2.0,8.0,37,0.00,,,0.00,,2013-05-31 02:02:00,
2013-05-30 19:11:00,73.0,45.0,29.95,ENE,69,2.0,8.0,37,0.00,,,0.00,,2013-05-31 02:11:00,
2013-05-30 19:21:00,72.0,44.0,29.95,NW,315,2.0,5.0,37,0.00,,,0.00,,2013-05-31 02:21:00,
2013-05-30 19:31:00,71.0,45.0,29.95,SSW,209,2.0,7.0,39,0.00,,,0.00,,2013-05-31 02:31:00,
2013-05-30 19:41:00,71.0,45.0,29.95,SSW,209,2.0,7.0,39,0.00,,,0.00,,2013-05-31 02:41:00,
2013-05-30 19:51:00,70.0,45.0,29.95,SSW,196,1.0,5.0,40,0.00,,,0.00,,2013-05-31 02:51:00,
2013-05-30 20:01:00,69.0,45.0,29.95,East,92,1.0,4.0,42,0.00,,,0.00,,2013-05-31 03:01:00,
2013-05-30 20:11:00,69.0,45.0,29.95,East,92,1.0,4.0,42,0.00,,,0.00,,2013-05-31 03:11:00,
2013-05-30 20:21:00,68.0,45.0,29.96,East,100,3.0,5.0,43,0.00,,,0.00,,2013-05-31 03:21:00,
2013-05-30 20:33:00,67.0,45.0,29.96,East,101,0.0,3.0,45,0.00,,,0.00,,2013-05-31 03:33:00,
2013-05-30 20:43:00,67.0,45.0,29.96,East,101,0.0,3.0,45,0.00,,,0.00,,2013-05-31 03:43:00,
2013-05-30 20:53:00,66.0,45.0,29.96,SSW,196,0.0,2.0,47,0.00,,,0.00,,2013-05-31 03:53:00,
2013-05-30 21:02:00,64.0,44.0,29.96,ESE,108,1.0,2.0,49,0.00,,,0.00,,2013-05-31 04:02:00,
2013-05-30 21:12:00,64.0,44.0,29.96,ESE,108,1.0,2.0,49,0.00,,,0.00,,2013-05-31 04:12:00,
2013-05-30 21:22:00,63.0,45.0,29.96,SE,131,1.0,3.0,51,0.00,,,0.00,,2013-05-31 04:22:00,
2013-05-30 21:32:00,63.0,45.0,29.97,SSW,203,1.0,2.0,52,0.00,,,0.00,,2013-05-31 04:32:00,
2013-05-30 21:42:00,63.0,45.0,29.97,SSW,203,1.0,2.0,52,0.00,,,0.00,,2013-05-31 04:42:00,
2013-05-30 21:53:00,61.0,44.0,29.98,SSW,202,0.0,2.0,53,0.00,,,0.00,,2013-05-31 04:53:00,
2013-05-30 22:02:00,60.0,44.0,29.98,SSW,202,0.0,2.0,56,0.00,,,0.00,,2013-05-31 05:02:00,
2013-05-30 22:12:00,60.0,44.0,29.98,SSW,202,0.0,2.0,56,0.00,,,0.00,,2013-05-31 05:12:00,
2013-05-30 22:22:00,60.0,45.0,29.98,SSW,202,0.0,1.0,58,0.00,,,0.00,,2013-05-31 05:22:00,
2013-05-30 22:31:00,59.0,44.0,29.99,SSW,201,0.0,3.0,57,0.00,,,0.00,,2013-05-31 05:31:00,
2013-05-30 22:42:00,59.0,44.0,29.99,SSW,201,0.0,3.0,57,0.00,,,0.00,,2013-05-31 05:42:00,
2013-05-30 22:52:00,58.0,44.0,29.99,SSW,201,0.0,0.0,59,0.00,,,0.00,,2013-05-31 05:52:00,
2013-05-30 23:01:00,58.0,45.0,29.99,SSW,201,0.0,1.0,61,0.00,,,0.00,,2013-05-31 06:01:00,
2013-05-30 23:11:00,58.0,45.0,29.99,SSW,201,0.0,1.0,61,0.00,,,0.00,,2013-05-31 06:11:00,
2013-05-30 23:21:00,57.0,44.0,29.99,SSW,201,1.0,1.0,61,0.00,,,0.00,,2013-05-31 06:21:00,
2013-05-30 23:31:00,57.0,45.0,30.00,SSW,201,0.0,1.0,63,0.00,,,0.00,,2013-05-31 06:31:00,
2013-05-30 23:41:00,57.0,45.0,30.00,SSW,201,0.0,1.0,63,0.00,,,0.00,,2013-05-31 06:41:00,
2013-05-30 23:52:00,56.0,44.0,29.99,SSW,201,0.0,1.0,65,0.00,,,0.00,,2013-05-31 06:52:00,